Weather reports worldwide

Advertisment
Ploce, Croatia (14462): temperature & dewpoint: 12.07.2018 10:00:00 - 18.07.2018 10:00:00 (CEST)Ploce, Croatia (14462): wind speed: 12.07.2018 10:00:00 - 18.07.2018 10:00:00 (CEST)Ploce, Croatia (14462): wind direction: 12.07.2018 10:00:00 - 18.07.2018 10:00:00 (CEST)Ploce, Croatia (14462): reduced air pressure: 12.07.2018 10:00:00 - 18.07.2018 10:00:00 (CEST)Ploce, Croatia (14462): visibility: 12.07.2018 10:00:00 - 18.07.2018 10:00:00 (CEST)
Date & Time tt [°C] td [°C] ff [km/h] ff [kn] dd ppp [hPa] vv [km]
18.07.2018 10:00:00 26,2 16,9 7 4 SSE 1012,5 30
18.07.2018 09:00:00 24,1 16,7 4 2 E 1012,6 30
18.07.2018 08:00:00 22,5 17,3 7 4 E 1012,3 30
18.07.2018 07:00:00 - - - - - - -
18.07.2018 06:00:00 - - - - - - -
18.07.2018 05:00:00 - - - - - - -
18.07.2018 04:00:00 - - - - - - -
18.07.2018 03:00:00 - - - - - - -
18.07.2018 02:00:00 - - - - - - -
18.07.2018 01:00:00 - - - - - - -
18.07.2018 00:00:00 - - - - - - -
17.07.2018 23:00:00 - - - - - - -
17.07.2018 22:00:00 23,1 19,8 11 6 NNW 1010,6 30
17.07.2018 21:00:00 23,8 19,8 14 8 NNW 1009,9 30
17.07.2018 20:00:00 24,2 20,4 11 6 WNW 1009,7 30
17.07.2018 19:00:00 - - - - - - -
17.07.2018 18:00:00 - - - - - - -
17.07.2018 17:00:00 - - - - - - -
17.07.2018 16:00:00 - - - - - - -
17.07.2018 15:00:00 25,8 17,8 22 12 W 1009,1 30
17.07.2018 14:00:00 25,8 17,7 18 10 W 1009,4 30
17.07.2018 13:00:00 25,8 16,1 14 8 WSW 1009,7 30
17.07.2018 12:00:00 24,4 17,4 7 4 S 1009,7 30
17.07.2018 11:00:00 23,8 17,2 7 4 SSE 1009,6 30
17.07.2018 10:00:00 21,6 17,1 7 4 ESE 1009,6 30
17.07.2018 09:00:00 20,2 16,9 11 6 NNE 1009,7 30
17.07.2018 08:00:00 20,4 17,0 14 8 NNE 1009,7 30
17.07.2018 07:00:00 - - - - - - -
17.07.2018 06:00:00 - - - - - - -
17.07.2018 05:00:00 - - - - - - -
17.07.2018 04:00:00 - - - - - - -
17.07.2018 03:00:00 - - - - - - -
17.07.2018 02:00:00 - - - - - - -
17.07.2018 01:00:00 - - - - - - -
17.07.2018 00:00:00 - - - - - - -
16.07.2018 23:00:00 - - - - - - -
16.07.2018 22:00:00 25,4 21,1 4 2 SE 1010,6 30
16.07.2018 21:00:00 25,7 21,5 0 0 N 1010,8 30
16.07.2018 20:00:00 27,5 18,5 7 4 SW 1011,0 30
16.07.2018 19:00:00 - - - - - - -
16.07.2018 18:00:00 - - - - - - -
16.07.2018 17:00:00 - - - - - - -
16.07.2018 16:00:00 - - - - - - -
16.07.2018 15:00:00 31,4 17,3 14 8 W 1011,9 30
16.07.2018 14:00:00 31,5 16,1 18 10 WSW 1012,1 30
16.07.2018 13:00:00 31,0 16,8 14 8 SW 1012,2 30
16.07.2018 12:00:00 30,2 17,2 11 6 SSW 1012,5 30
16.07.2018 11:00:00 29,8 16,7 11 6 S 1012,7 30
16.07.2018 10:00:00 28,1 18,0 7 4 S 1012,7 30
16.07.2018 09:00:00 25,8 17,5 7 4 ESE 1012,7 30
16.07.2018 08:00:00 23,8 17,2 7 4 ESE 1012,8 30
16.07.2018 07:00:00 - - - - - - -
16.07.2018 06:00:00 - - - - - - -
16.07.2018 05:00:00 - - - - - - -
16.07.2018 04:00:00 - - - - - - -
16.07.2018 03:00:00 - - - - - - -
16.07.2018 02:00:00 - - - - - - -
16.07.2018 01:00:00 - - - - - - -
16.07.2018 00:00:00 - - - - - - -
15.07.2018 23:00:00 - - - - - - -
15.07.2018 22:00:00 25,8 17,0 7 4 S 1012,6 30
15.07.2018 21:00:00 27,2 15,8 7 4 SSW 1012,1 30
15.07.2018 20:00:00 30,0 14,1 14 8 WSW 1011,8 30
15.07.2018 19:00:00 - - - - - - -
15.07.2018 18:00:00 - - - - - - -
15.07.2018 17:00:00 - - - - - - -
15.07.2018 16:00:00 - - - - - - -
15.07.2018 15:00:00 32,2 15,7 18 10 WSW 1012,1 30
15.07.2018 14:00:00 32,5 13,9 18 10 WSW 1012,5 30
15.07.2018 13:00:00 32,0 14,6 14 8 SSW 1013,0 30
15.07.2018 12:00:00 32,0 17,1 11 6 SSW 1013,3 30
15.07.2018 11:00:00 31,1 14,8 7 4 SE 1013,4 30
15.07.2018 10:00:00 29,0 15,1 7 4 ESE 1013,5 30
15.07.2018 09:00:00 26,4 15,4 7 4 E 1013,8 30
15.07.2018 08:00:00 24,0 15,9 7 4 ESE 1013,8 30
15.07.2018 07:00:00 - - - - - - -
15.07.2018 06:00:00 - - - - - - -
15.07.2018 05:00:00 - - - - - - -
15.07.2018 04:00:00 - - - - - - -
15.07.2018 03:00:00 - - - - - - -
15.07.2018 02:00:00 - - - - - - -
15.07.2018 01:00:00 - - - - - - -
15.07.2018 00:00:00 - - - - - - -
14.07.2018 23:00:00 - - - - - - -
14.07.2018 22:00:00 27,3 12,4 7 4 NNE 1014,1 30
14.07.2018 21:00:00 27,5 12,7 7 4 NNE 1013,8 30
14.07.2018 20:00:00 28,0 13,4 22 12 WNW 1013,9 30
14.07.2018 19:00:00 - - - - - - -
14.07.2018 18:00:00 - - - - - - -
14.07.2018 17:00:00 - - - - - - -
14.07.2018 16:00:00 - - - - - - -
14.07.2018 15:00:00 30,8 12,3 22 12 W 1015,0 30
14.07.2018 14:00:00 30,8 12,3 18 10 W 1015,2 30
14.07.2018 13:00:00 30,6 12,6 18 10 WSW 1015,6 30
14.07.2018 12:00:00 29,3 13,5 18 10 SW 1016,1 30
14.07.2018 11:00:00 28,8 12,8 18 10 SW 1016,1 30
14.07.2018 10:00:00 28,6 14,6 14 8 NNE 1016,3 30
14.07.2018 09:00:00 26,9 12,5 11 6 NNE 1016,7 30
14.07.2018 08:00:00 - - - - - - -
14.07.2018 07:00:00 - - - - - - -
14.07.2018 06:00:00 - - - - - - -
14.07.2018 05:00:00 - - - - - - -
14.07.2018 04:00:00 - - - - - - -
14.07.2018 03:00:00 - - - - - - -
14.07.2018 02:00:00 - - - - - - -
14.07.2018 01:00:00 - - - - - - -
14.07.2018 00:00:00 - - - - - - -
13.07.2018 23:00:00 - - - - - - -
13.07.2018 22:00:00 26,0 19,7 14 8 NNW 1015,5 30
13.07.2018 21:00:00 26,2 19,6 14 8 NNW 1014,7 30
13.07.2018 20:00:00 27,0 19,7 22 12 WNW 1014,2 30
13.07.2018 19:00:00 - - - - - - -
13.07.2018 18:00:00 - - - - - - -
13.07.2018 17:00:00 - - - - - - -
13.07.2018 16:00:00 - - - - - - -
13.07.2018 15:00:00 29,0 15,3 36 19 W 1015,0 30
13.07.2018 14:00:00 29,7 17,3 29 16 W 1015,1 30
13.07.2018 13:00:00 29,1 17,1 25 14 W 1015,9 30
13.07.2018 12:00:00 29,0 16,9 18 10 WSW 1016,1 30
13.07.2018 11:00:00 27,7 19,3 11 6 SW 1016,1 30
13.07.2018 10:00:00 26,5 20,2 11 6 SW 1016,1 30
13.07.2018 09:00:00 25,4 20,1 7 4 SW 1016,1 30
13.07.2018 08:00:00 24,3 20,3 0 0 N 1016,0 30
13.07.2018 07:00:00 - - - - - - -
13.07.2018 06:00:00 - - - - - - -
13.07.2018 05:00:00 - - - - - - -
13.07.2018 04:00:00 - - - - - - -
13.07.2018 03:00:00 - - - - - - -
13.07.2018 02:00:00 - - - - - - -
13.07.2018 01:00:00 - - - - - - -
13.07.2018 00:00:00 - - - - - - -
12.07.2018 23:00:00 - - - - - - -
12.07.2018 22:00:00 24,4 20,0 7 4 SE 1014,6 30
12.07.2018 21:00:00 25,8 19,5 7 4 ESE 1014,0 30
12.07.2018 20:00:00 27,3 18,9 7 4 SSE 1014,0 30
12.07.2018 19:00:00 - - - - - - -
12.07.2018 18:00:00 - - - - - - -
12.07.2018 17:00:00 - - - - - - -
12.07.2018 16:00:00 - - - - - - -
12.07.2018 15:00:00 29,6 19,7 22 12 S 1014,6 30
12.07.2018 14:00:00 29,8 18,8 18 10 S 1014,7 30
12.07.2018 13:00:00 30,5 17,4 22 12 S 1014,7 30
12.07.2018 12:00:00 30,0 15,4 18 10 SSE 1014,6 30
12.07.2018 11:00:00 29,0 16,0 14 8 SSW 1014,6 30
12.07.2018 10:00:00 28,0 15,1 7 4 ESE 1014,5 30

tt = temperature
td = dewpoint
ff = wind speed
dd = wind direction
ppp = reduced air pressure
vv = visibility

Next stations